Regional Weather Roundup
Issued by NWS San Diego, CA

Home | Current Version | Previous Version | Text Only | Print | Product List | Glossary On
Versions: 1 2 3 4 5 6 7 8 9 10 11 12 13 14 15 16 17 18 19 20 21 22 23 24 25 26 27 28 29 30 31 32 33 34 35 36 37 38 39 40 41 42 43 44 45 46 47 48 49 50
000
ASUS46 KSGX 290810
RWRSGX

SAN DIEGO HOURLY WEATHER ROUNDUP
NATIONAL WEATHER SERVICE SAN DIEGO CA
100 AM PDT TUE JUL 29 2014

NOTE: "FAIR" INDICATES FEW OR NO CLOUDS BELOW 12,000 FEET WITH NO
SIGNIFICANT WEATHER AND/OR OBSTRUCTIONS TO VISIBILITY.

CAZ042-043-060-061-PZZ750-775-290900-

GREATER SAN DIEGO AREA

CITY           SKY/WX    TMP DP  RH WIND       PRES   REMARKS
LINDBERGH FLD  PTCLDY    73  67  81 N5        30.04F
POINT LOMA       N/A     71  60  67 N8          N/A
NATIONAL CITY    N/A     74  67  78 CALM      30.04F
CHULA VISTA      N/A     71  68  88 CALM      29.97F
IMPERIAL BEACH CLEAR     67  65  93 CALM      30.03F
BROWN FIELD    CLEAR     69  65  86 CALM      30.04F
MIRAMAR MCAS   PTCLDY    69  61  75 CALM      30.04F
MONTGOMERY FLD CLEAR     73  63  70 N3        30.04F

$$

NORTH SAN DIEGO COUNTY

CITY           SKY/WX    TMP DP  RH WIND       PRES   REMARKS
CAMP PENDLETON PTCLDY    70  63  78 CALM      30.04R
OCEANSIDE AP   PTCLDY    71  66  84 S3        30.03R
VISTA            N/A     70  64  83 CALM      30.02R
CARLSBAD       PTCLDY    73  65  75 CALM      30.03S
DEL MAR          N/A     68  67  95 CALM      30.05S
LA JOLLA SCRIP   N/A     70  68  94 CALM      30.00F
FALLBROOK        N/A     69  65  88 CALM      30.04S
ESCONDIDO        N/A     72  59  64 CALM      30.05S
SAN MARCOS       N/A     69  61  75 CALM      30.01S
POWAY            N/A     70  59  68 CALM      30.04F
R. PENASQUITOS   N/A     70  64  83 CALM      30.03F

$$

EAST SAN DIEGO COUNTY

CITY           SKY/WX    TMP DP  RH WIND       PRES   REMARKS
RAMONA         CLEAR     68  45  43 CALM      30.07F
SANTEE LAKES     N/A     71  56  59 CALM      30.03F
GILLESPIE FLD  FAIR      73  55  53 NW3       30.05F
LA MESA          N/A     73  64  73 CALM      29.97F
JAMUL            N/A     69  56  63 CALM      30.01S
DESCANSO N       N/A     65  47  50 E3        29.90S
MT. LAGUNA OBS   N/A     67  48  49 NW1       29.87S
CAMPO            N/A     66  49  54 NE5       30.10F

$$

ORANGE COUNTY AND THE LOS ANGELES BASIN

CITY           SKY/WX    TMP DP  RH WIND       PRES   REMARKS
JOHN WAYNE AP  CLEAR     73  63  70 CALM      30.02S
LAGUNA BEACH     N/A     68  63  83 CALM      29.98S
LAKE FOREST FR   N/A     72  49  44 CALM      29.91R
SANTA ANA        N/A     70  65  84 CALM      29.98R
HUNTINGTON BCH   N/A     67  64  90 CALM      30.04S
LOS ALAMITOS   FAIR      68  63  85 CALM      30.02S
FULLERTON      CLEAR     73  60  63 CALM      30.01S
LONG BEACH     CLEAR     71  61  70 CALM      30.02S
L.A. AP        PTCLDY    69  61  75 SE5       30.02S
L.A. DOWNTOWN  CLEAR     72  62  71 VRB3      30.01S

$$

THE INLAND EMPIRE

CITY           SKY/WX    TMP DP  RH WIND       PRES   REMARKS
CORONA         CLEAR     68  41  37 CALM      30.04R
CHINO          CLEAR     71  47  42 CALM      30.05S
ONTARIO        PTCLDY    74  40  29 W3        30.04F
RIVERSIDE AP   CLEAR     74  34  23 S5        30.04S
RIV CYN CREST    N/A     75  44  33 CALM      30.02F
MORENO VALLEY    N/A     73  45  36 CALM        N/A
MARCH ARB      CLEAR     73  30  20 CALM      30.08R
HORSETHIEF CYN   N/A     73  38  28 CALM      30.03S
PERRIS           N/A     76  34  21 CALM      30.04S
MENIFEE          N/A     76  40  26 CALM      30.11S
HEMET EAST       N/A     74  46  37 CALM      30.01S
FRENCH VALLEY  FAIR      73  50  43 CALM      30.07S
TEMECULA         N/A     73  53  47 S2        30.04S

$$

SAN BERNARDINO AND RIVERSIDE COUNTY MOUNTAINS

CITY           SKY/WX    TMP DP  RH WIND       PRES   REMARKS
BIG BEAR AP    CLEAR     52  46  82 CALM      30.40S
BIG BEAR SHEA    N/A     52  47  82 CALM      30.14R
ANGELUS OAKS     N/A     63  46  55 MISG      29.90F
PINE COVE        N/A     62  49  62 N2        30.00S

$$

SOUTHERN DESERT INCLUDING THE COACHELLA VALLEY

CITY           SKY/WX    TMP DP  RH WIND       PRES   REMARKS
PALM SPRINGS   CLEAR     93  48  21 NW6       29.92S
THOUSAND PALMS   N/A     90  50  25 W17       29.87F
THERMAL        CLEAR     93  51  23 N12       29.85S
BLYTHE           N/A    N/A N/A N/A MISG      29.88S
IMPERIAL AP    CLEAR     91  55  29 W10       29.86S
EL CENTRO NAS  CLEAR     94  51  23 W15       29.87S
YUMA AZ        CLEAR     92  63  38 W3        29.90R

$$

UPPER DESERT

CITY           SKY/WX    TMP DP  RH WIND       PRES   REMARKS
VICTORVILLE AP PTCLDY    79  43  27 W7        30.13S
HESPERIA         N/A     74  49  40 W3        30.07F
APPLE VALLEY     N/A     76  46  34 CALM      30.18S
GRAY BUTTE AP  NOT AVBL
PALMDALE       PTCLDY    75  43  31 SW5       30.11F
LANCASTER      PTCLDY    80  43  26 S3        30.10S
EDWARDS AFB    PTCLDY    81  45  28 S6        30.08S
DAGGETT        CLEAR     86  49  27 SW8       30.03S
29 PALMS N     CLEAR     85  49  28 NW9       30.10S
NEEDLES        CLEAR     84  72  67 W7        29.94S

$$

REGIONAL REPORTS

CITY           SKY/WX    TMP DP  RH WIND       PRES   REMARKS
SANTA BARBARA  CLEAR     66  61  84 CALM      30.00S
SANDBERG       PTCLDY    74  39  28 N12       30.26R
MT. WILSON       N/A     70  41  35 MISG        N/A
LAS VEGAS NV   MOCLDY    82  64  54 S9        30.00S
PHOENIX AZ     PTCLDY    97  57  26 W3        29.92F HX  96
TIJUANA        PTCLDY    70  63  78 CALM      30.06
ENSENADA NW      N/A     70  32  24 CALM      30.00F

$$

OFFSHORE ISLANDS

CITY           SKY/WX    TMP DP  RH WIND       PRES   REMARKS
CATALINA ARPT  CLEAR     74  36  25 W3        30.09R
SAN NICOLAS IS CLEAR    N/A N/A N/A CALM      30.04R

$$

MARINE AND OFFSHORE BUOY REPORTS

STATION/POSITION SKY/WX   TEMP    WIND        PRES    SWELL
                          AIR SEA DIR/SP/G            HT/PER/DIR
                          (F)     (DEG/KT/KT) (MB)    (FT/S/D)
TANNER BANKS               66 67  320/ 10/ 12 1017.2F   3/320/ 8
S CLEMENTE BASIN           70 71  340/  4/  4 1016.9F   3/190/14
SAN NICOLAS IS.               67                N/A     2/190/13
SO. S. ROSA ISLA           65 67  300/ 12/ 14 1016.5R   3/ 9
W. S. BARBARA CH           63 63  320/ 19/ 21 1015.6F   3/310/ 8
M. S. BARBARA CH           64 64  270/ 10/ 10 1016.1F
S. MONICA BASIN            67 68  330/ 12/ 14 1015.7F   2/210/14
S PEDRO CHANNEL               68                N/A     2/170/13
DANA POINT                    70                N/A     2/180/15
CMP PENDLETON NS              69                N/A     2/210/13
OCEANSIDE OFFSHR              71                N/A     2/200/14
TORREY PINES OTR              72                N/A     2/200/13
LA JOLLA 1                 72 70   10/  3/  3 1017.0F
MISSION BAY BUOY              71                N/A     2/190/13
SAN DIEGO BAY                 74              1017.4S
POINT LOMA SOUTH              71                N/A     2/190/13

$$



USA.gov is the U.S. government's official web portal to all federal, state and local government web resources and services.